Overview Statistics Trail Chart Weather Telemetry Raw packets
 

This is the latest recevied weather packets stored in our database for station/object K4XP. If no packets are shown the sender has not sent any weather packets the latest 10 day(s).

<< 97 98 99 100 101 102 >>
Time Temp. Humidity Pressure Rain* Wind** Luminosity Snow
1787866243 29.44° C 70% 1013.4 hPa 0 mm - - -
1787865935 29.44° C 71% 1013.6 hPa 0 mm - - -
1787865634 29.44° C 70% 1013.7 hPa 0 mm - - -
1787865336 29.44° C 71% 1013.6 hPa 0 mm - - -
1787865028 29.44° C 71% 1013.7 hPa 0 mm - - -
1787864727 29.44° C 71% 1013.7 hPa 0 mm - - -
1787864416 29.44° C 71% 1013.8 hPa 0 mm - - -
1787864139 29.44° C 70% 1013.8 hPa 0 mm - - -
1787863838 30° C 71% 1013.9 hPa 0 mm - - -
1787863538 30° C 69% 1013.9 hPa 0 mm - - -
1787863231 30° C 68% 1013.9 hPa 0 mm - - -
1787862939 30.56° C 68% 1014.1 hPa 0 mm - - -
1787862641 30.56° C 66% 1014.2 hPa 0 mm - - -
1787862349 30.56° C 66% 1014 hPa 0 mm - - -
1787862034 30.56° C 66% 1014 hPa 0 mm - - -
1787861733 31.11° C 65% 1014.2 hPa 0 mm - - -
1787861426 30.56° C 66% 1014.4 hPa 0 mm - - -
1787861123 30.56° C 65% 1014.5 hPa 0 mm - - -
1787860831 30.56° C 64% 1014.5 hPa 0 mm - - -
1787860531 30.56° C 63% 1014.5 hPa 0 mm - - -
1787860238 30.56° C 65% 1014.6 hPa 0 mm - - -
1787859926 30.56° C 61% 1014.5 hPa 0 mm - - -
1787859624 30.56° C 66% 1014.5 hPa 0 mm - - -
1787859342 30.56° C 66% 1014.5 hPa 0 mm - - -
1787859036 30° C 66% 1014.5 hPa 0 mm - - -

* Rain latest hour (hover to see other rain measurements)
** Current wind speed in m/s (hover to see current wind gust speed)